Location: Novokuznetsk
(53.7500°N, 87.1000°E)
Time: 18:24:27
(UTC+06:00)

ISS - Pass Details

Date: 25 April 2026
Orbit: 414 x 424 km, 51.6° (Epoch: 18 May)

Event Time Altitude Azimuth Distance (km) Brightness Sun altitude
Exits shadow 02:33:07 15° 148° (SSE) 1,234 -1.6 -16.5°
Maximum altitude 02:33:19 15° 144° (SE) 1,232 -1.6 -16.5°
Drops below altitude 10° 02:35:19 10° 107° (ESE) 1,502 -0.7 -16.3°
Sets 02:38:04 0° 83° (E) 2,373 0.8 -16.1°
